Time,TemperatureF,DewpointF,PressureIn,WindDirection,WindDirectionDegrees,WindSpeedMPH,WindSpeedGustMPH,Humidity,HourlyPrecipIn,Conditions,Clouds,dailyrainin,SoftwareType,DateUTC
2014-04-17 00:01:00,49.5,47.5,29.93,ESE,113,0.0,0.9,93,0.04,,,0.00,WUHU216HW,2014-04-17 07:01:00,
2014-04-17 00:06:00,49.5,47.5,29.93,ESE,113,0.0,0.4,93,0.06,,,0.00,WUHU216HW,2014-04-17 07:06:00,
2014-04-17 00:11:00,49.5,47.5,29.93,ESE,113,0.0,0.4,93,0.04,,,0.02,WUHU216HW,2014-04-17 07:11:00,
2014-04-17 00:16:00,49.5,47.5,29.93,ESE,113,0.4,0.4,93,0.04,,,0.02,WUHU216HW,2014-04-17 07:16:00,
2014-04-17 00:21:00,49.5,47.5,29.93,ESE,113,0.0,0.4,93,0.04,,,0.02,WUHU216HW,2014-04-17 07:21:00,
2014-04-17 00:26:00,49.5,47.5,29.93,East,90,1.6,1.6,93,0.04,,,0.02,WUHU216HW,2014-04-17 07:26:00,
2014-04-17 00:31:00,49.3,47.6,29.92,East,90,0.2,1.6,94,0.04,,,0.02,WUHU216HW,2014-04-17 07:31:00,
2014-04-17 00:36:00,49.3,47.6,29.92,ESE,113,0.0,1.1,94,0.04,,,0.02,WUHU216HW,2014-04-17 07:36:00,
2014-04-17 00:41:00,49.3,47.6,29.92,ESE,113,0.4,1.1,94,0.04,,,0.04,WUHU216HW,2014-04-17 07:41:00,
2014-04-17 00:46:00,49.3,47.6,29.92,ESE,113,0.2,1.1,94,0.04,,,0.04,WUHU216HW,2014-04-17 07:46:00,
2014-04-17 00:51:00,49.3,47.6,29.92,ESE,113,0.0,0.4,94,0.04,,,0.04,WUHU216HW,2014-04-17 07:51:00,
2014-04-17 00:56:00,49.3,47.6,29.92,East,90,0.0,1.1,94,0.04,,,0.04,WUHU216HW,2014-04-17 07:56:00,
2014-04-17 01:01:00,49.3,47.6,29.92,East,90,0.0,1.1,94,0.04,,,0.04,WUHU216HW,2014-04-17 08:01:00,
2014-04-17 01:06:00,49.3,47.6,29.92,ESE,113,0.0,0.4,94,0.02,,,0.04,WUHU216HW,2014-04-17 08:06:00,
2014-04-17 01:11:00,49.3,47.6,29.92,SSE,158,0.0,0.9,94,0.02,,,0.04,WUHU216HW,2014-04-17 08:11:00,
2014-04-17 01:16:00,49.3,47.6,29.91,ESE,113,0.2,0.9,94,0.02,,,0.04,WUHU216HW,2014-04-17 08:16:00,
2014-04-17 01:21:00,49.3,47.6,29.91,ESE,113,0.0,1.1,94,0.02,,,0.04,WUHU216HW,2014-04-17 08:21:00,
2014-04-17 01:26:00,49.3,47.6,29.91,ESE,113,0.0,1.1,94,0.02,,,0.04,WUHU216HW,2014-04-17 08:26:00,
2014-04-17 01:31:00,49.3,47.6,29.91,SSW,203,0.2,3.4,94,0.02,,,0.04,WUHU216HW,2014-04-17 08:31:00,
2014-04-17 01:36:00,49.3,47.6,29.91,ESE,113,0.0,3.4,94,0.00,,,0.04,WUHU216HW,2014-04-17 08:36:00,
2014-04-17 01:41:00,49.3,47.6,29.90,East,90,0.0,0.7,94,0.00,,,0.04,WUHU216HW,2014-04-17 08:41:00,
2014-04-17 01:46:00,49.3,47.6,29.90,East,90,0.2,0.7,94,0.00,,,0.04,WUHU216HW,2014-04-17 08:46:00,
2014-04-17 01:51:00,49.3,47.6,29.90,East,90,0.2,1.3,94,0.00,,,0.04,WUHU216HW,2014-04-17 08:51:00,
2014-04-17 01:56:00,49.3,47.6,29.90,SE,135,0.0,1.3,94,0.00,,,0.04,WUHU216HW,2014-04-17 08:56:00,
2014-04-17 02:01:00,49.3,47.6,29.89,SE,135,0.0,1.1,94,0.00,,,0.04,WUHU216HW,2014-04-17 09:01:00,
2014-04-17 02:06:00,49.3,47.6,29.89,ESE,113,0.4,0.9,94,0.00,,,0.04,WUHU216HW,2014-04-17 09:06:00,
2014-04-17 02:11:00,49.5,47.8,29.89,SSE,158,0.4,0.9,94,0.00,,,0.04,WUHU216HW,2014-04-17 09:11:00,
2014-04-17 02:16:00,49.3,47.6,29.89,ESE,113,0.7,0.7,94,0.00,,,0.04,WUHU216HW,2014-04-17 09:16:00,
2014-04-17 02:21:00,49.5,47.8,29.89,South,180,0.2,0.7,94,0.00,,,0.04,WUHU216HW,2014-04-17 09:21:00,
2014-04-17 02:26:00,49.5,47.8,29.89,SE,135,0.2,0.4,94,0.00,,,0.04,WUHU216HW,2014-04-17 09:26:00,
2014-04-17 02:31:00,49.5,47.8,29.88,SSE,158,0.0,0.4,94,0.00,,,0.04,WUHU216HW,2014-04-17 09:31:00,
2014-04-17 02:36:00,49.7,48.0,29.88,ESE,113,0.0,0.4,94,0.00,,,0.04,WUHU216HW,2014-04-17 09:36:00,
2014-04-17 02:41:00,49.7,48.0,29.88,WSW,248,0.0,0.2,94,0.00,,,0.04,WUHU216HW,2014-04-17 09:41:00,
2014-04-17 02:46:00,49.7,48.0,29.88,SE,135,0.2,0.4,94,0.00,,,0.04,WUHU216HW,2014-04-17 09:46:00,
2014-04-17 02:51:00,49.7,47.7,29.88,South,180,0.2,1.3,93,0.00,,,0.04,WUHU216HW,2014-04-17 09:51:00,
2014-04-17 02:56:00,49.9,47.9,29.88,South,180,0.4,1.3,93,0.00,,,0.04,WUHU216HW,2014-04-17 09:56:00,
2014-04-17 03:01:00,49.9,47.9,29.89,SSW,203,0.2,2.2,93,0.00,,,0.04,WUHU216HW,2014-04-17 10:01:00,
2014-04-17 03:06:00,49.9,47.9,29.89,SSW,203,0.0,2.2,93,0.00,,,0.04,WUHU216HW,2014-04-17 10:06:00,
2014-04-17 03:11:00,50.0,48.1,29.89,SW,225,0.4,1.3,93,0.00,,,0.04,WUHU216HW,2014-04-17 10:11:00,
2014-04-17 03:16:00,50.0,48.1,29.89,SSW,203,1.1,1.3,93,0.02,,,0.06,WUHU216HW,2014-04-17 10:16:00,
2014-04-17 03:21:00,50.0,48.1,29.89,SW,225,0.4,1.1,93,0.02,,,0.06,WUHU216HW,2014-04-17 10:21:00,
2014-04-17 03:26:00,50.0,48.1,29.88,SSW,203,0.4,0.9,93,0.02,,,0.06,WUHU216HW,2014-04-17 10:26:00,
2014-04-17 03:31:00,50.0,48.1,29.88,WSW,248,0.4,0.7,93,0.02,,,0.06,WUHU216HW,2014-04-17 10:31:00,
2014-04-17 03:36:00,50.0,48.1,29.89,WSW,248,0.4,0.7,93,0.02,,,0.06,WUHU216HW,2014-04-17 10:36:00,
2014-04-17 03:41:00,50.0,48.1,29.89,SW,225,0.4,0.7,93,0.02,,,0.06,WUHU216HW,2014-04-17 10:41:00,
2014-04-17 03:46:00,50.0,48.1,29.88,SW,225,0.4,1.3,93,0.02,,,0.06,WUHU216HW,2014-04-17 10:46:00,
2014-04-17 03:51:00,50.0,48.1,29.89,SW,225,0.2,2.0,93,0.02,,,0.06,WUHU216HW,2014-04-17 10:51:00,
2014-04-17 03:56:00,50.0,48.1,29.88,SW,225,1.1,2.9,93,0.02,,,0.06,WUHU216HW,2014-04-17 10:56:00,
2014-04-17 04:01:00,50.0,48.1,29.88,SW,225,0.4,2.9,93,0.02,,,0.06,WUHU216HW,2014-04-17 11:01:00,
2014-04-17 04:06:00,50.0,48.1,29.88,SSW,203,0.4,2.0,93,0.02,,,0.06,WUHU216HW,2014-04-17 11:06:00,
2014-04-17 04:11:00,50.0,48.1,29.88,SSW,203,0.4,2.5,93,0.02,,,0.06,WUHU216HW,2014-04-17 11:11:00,
2014-04-17 04:16:00,50.0,48.1,29.88,SSE,158,0.2,2.5,93,0.00,,,0.06,WUHU216HW,2014-04-17 11:16:00,
2014-04-17 04:21:00,50.0,48.1,29.88,SW,225,0.9,1.1,93,0.00,,,0.06,WUHU216HW,2014-04-17 11:21:00,
2014-04-17 04:26:00,50.0,48.1,29.88,SSW,203,0.4,2.0,93,0.00,,,0.06,WUHU216HW,2014-04-17 11:26:00,
2014-04-17 04:31:00,50.0,48.1,29.88,SW,225,1.1,2.0,93,0.00,,,0.06,WUHU216HW,2014-04-17 11:31:00,
2014-04-17 04:36:00,50.0,48.1,29.88,SW,225,0.0,2.0,93,0.00,,,0.06,WUHU216HW,2014-04-17 11:36:00,
2014-04-17 04:41:00,50.0,48.1,29.88,SW,225,0.4,2.0,93,0.00,,,0.06,WUHU216HW,2014-04-17 11:41:00,
2014-04-17 04:46:00,50.0,48.1,29.88,SW,225,0.0,1.3,93,0.00,,,0.06,WUHU216HW,2014-04-17 11:46:00,
2014-04-17 04:51:00,50.0,48.1,29.88,SW,225,0.7,1.1,93,0.00,,,0.06,WUHU216HW,2014-04-17 11:51:00,
2014-04-17 04:56:00,50.0,48.1,29.88,WSW,248,0.9,0.9,93,0.00,,,0.06,WUHU216HW,2014-04-17 11:56:00,
2014-04-17 05:01:00,50.0,48.1,29.88,WSW,248,0.4,2.5,93,0.00,,,0.06,WUHU216HW,2014-04-17 12:01:00,
2014-04-17 05:06:00,50.0,48.1,29.88,West,270,0.4,2.5,93,0.00,,,0.06,WUHU216HW,2014-04-17 12:06:00,
2014-04-17 05:11:00,50.0,48.1,29.88,SW,225,0.4,1.6,93,0.00,,,0.06,WUHU216HW,2014-04-17 12:11:00,
2014-04-17 05:16:00,50.0,48.1,29.88,SW,225,0.4,1.8,93,0.00,,,0.06,WUHU216HW,2014-04-17 12:16:00,
2014-04-17 05:21:00,50.0,48.1,29.88,SW,225,0.4,1.8,93,0.00,,,0.06,WUHU216HW,2014-04-17 12:21:00,
2014-04-17 05:26:00,50.0,48.1,29.88,WSW,248,0.4,1.8,93,0.00,,,0.06,WUHU216HW,2014-04-17 12:26:00,
2014-04-17 05:31:00,50.0,48.3,29.87,South,180,1.1,1.8,94,0.00,,,0.06,WUHU216HW,2014-04-17 12:31:00,
2014-04-17 05:36:00,50.0,48.3,29.87,NNW,338,0.2,1.1,94,0.02,,,0.08,WUHU216HW,2014-04-17 12:36:00,
2014-04-17 05:41:00,50.0,48.3,29.87,SW,225,1.1,1.1,94,0.02,,,0.08,WUHU216HW,2014-04-17 12:41:00,
2014-04-17 05:46:00,50.0,48.3,29.87,SW,225,0.7,1.6,94,0.02,,,0.08,WUHU216HW,2014-04-17 12:46:00,
2014-04-17 05:51:00,50.0,48.1,29.87,SW,225,1.6,1.6,93,0.02,,,0.08,WUHU216HW,2014-04-17 12:51:00,
2014-04-17 05:56:00,50.0,48.1,29.87,SW,225,0.2,1.6,93,0.02,,,0.08,WUHU216HW,2014-04-17 12:56:00,
2014-04-17 06:01:00,50.0,48.1,29.87,SSW,203,0.2,0.4,93,0.02,,,0.08,WUHU216HW,2014-04-17 13:01:00,
2014-04-17 06:06:00,50.0,48.1,29.86,SW,225,0.0,0.4,93,0.02,,,0.08,WUHU216HW,2014-04-17 13:06:00,
2014-04-17 06:11:00,50.0,48.1,29.86,SSW,203,0.2,0.4,93,0.02,,,0.08,WUHU216HW,2014-04-17 13:11:00,
2014-04-17 06:16:00,50.0,48.1,29.86,SSE,158,0.2,0.4,93,0.02,,,0.08,WUHU216HW,2014-04-17 13:16:00,
2014-04-17 06:21:00,50.0,48.1,29.86,SE,135,0.0,0.4,93,0.02,,,0.08,WUHU216HW,2014-04-17 13:21:00,
2014-04-17 06:26:00,50.0,48.1,29.86,WSW,248,0.9,0.9,93,0.02,,,0.08,WUHU216HW,2014-04-17 13:26:00,
2014-04-17 06:31:00,50.0,48.1,29.86,SW,225,0.4,0.9,93,0.02,,,0.08,WUHU216HW,2014-04-17 13:31:00,
2014-04-17 06:36:00,50.0,48.1,29.85,SW,225,0.4,0.7,93,0.00,,,0.08,WUHU216HW,2014-04-17 13:36:00,
2014-04-17 06:41:00,50.0,48.1,29.85,SW,225,0.4,0.7,93,0.00,,,0.08,WUHU216HW,2014-04-17 13:41:00,
2014-04-17 06:46:00,50.0,48.1,29.85,WSW,248,0.0,0.9,93,0.00,,,0.08,WUHU216HW,2014-04-17 13:46:00,
2014-04-17 06:51:00,50.0,48.1,29.85,SSE,158,0.0,0.9,93,0.00,,,0.08,WUHU216HW,2014-04-17 13:51:00,
2014-04-17 06:56:00,50.0,48.1,29.85,South,180,0.2,0.9,93,0.00,,,0.08,WUHU216HW,2014-04-17 13:56:00,
2014-04-17 07:01:00,50.0,48.1,29.85,SSW,203,0.2,0.9,93,0.00,,,0.08,WUHU216HW,2014-04-17 14:01:00,
2014-04-17 07:06:00,50.0,48.1,29.85,SSE,158,0.4,0.4,93,0.00,,,0.08,WUHU216HW,2014-04-17 14:06:00,
2014-04-17 07:11:00,50.0,48.1,29.85,SSE,158,0.4,0.4,93,0.00,,,0.08,WUHU216HW,2014-04-17 14:11:00,
2014-04-17 07:16:00,50.0,48.1,29.85,SE,135,0.0,0.4,93,0.00,,,0.08,WUHU216HW,2014-04-17 14:16:00,
2014-04-17 07:21:00,50.2,48.3,29.85,SE,135,0.0,0.2,93,0.00,,,0.08,WUHU216HW,2014-04-17 14:21:00,
2014-04-17 07:26:00,50.2,48.3,29.85,SE,135,0.0,0.2,93,0.00,,,0.08,WUHU216HW,2014-04-17 14:26:00,
2014-04-17 07:31:00,50.2,48.3,29.85,ESE,113,0.2,0.4,93,0.00,,,0.08,WUHU216HW,2014-04-17 14:31:00,
2014-04-17 07:36:00,50.0,48.1,29.85,SE,135,0.2,0.4,93,0.00,,,0.08,WUHU216HW,2014-04-17 14:36:00,
2014-04-17 07:41:00,50.0,48.1,29.85,East,90,0.4,0.4,93,0.00,,,0.08,WUHU216HW,2014-04-17 14:41:00,
2014-04-17 07:46:00,50.0,48.1,29.85,SE,135,0.2,0.4,93,0.02,,,0.11,WUHU216HW,2014-04-17 14:46:00,
2014-04-17 07:51:00,50.0,48.1,29.85,ESE,113,0.4,0.4,93,0.02,,,0.11,WUHU216HW,2014-04-17 14:51:00,
2014-04-17 07:56:00,50.0,48.1,29.85,SE,135,0.2,0.4,93,0.02,,,0.11,WUHU216HW,2014-04-17 14:56:00,
2014-04-17 08:01:00,50.0,48.1,29.85,ESE,113,0.0,0.4,93,0.02,,,0.11,WUHU216HW,2014-04-17 15:01:00,
2014-04-17 08:06:00,50.2,48.3,29.85,SSW,203,0.2,0.4,93,0.02,,,0.11,WUHU216HW,2014-04-17 15:06:00,